Fort Polk, LA

2:58 PM CST on January 21, 2018 (GMT -0600)
Fort Polk

Weather History for KBKB - July, 2013

Change the Weather History Date:

Tuesday, July 2, 2013

  Actual Average (KPOE) Record (KPOE)
Temperature  
Mean Temperature 76 °F -  
Max Temperature 89 °F 88 °F 97 °F (2011)
Min Temperature 64 °F 71 °F 64 °F (2008)
Cooling Degree Days 12    
Growing Degree Days 26 (Base 50)    
Moisture  
Dew Point 64 °F    
Average Humidity 74    
Maximum Humidity 90    
Minimum Humidity 38    
Precipitation  
Precipitation 0.32 in - - ()
Sea Level Pressure  
Sea Level Pressure 30.03 in    
Wind  
Wind Speed 1 mph (North)    
Max Wind Speed 7 mph    
Max Gust Speed 18 mph    
Visibility 8 miles    
Events Rain , Thunderstorm    
Averages and records for this station are not official NWS values.
T = Trace of Precipitation, MM = Missing Value Source: NWS Daily Summary

Daily Weather History Graph

Daily Weather History Graph

Search for Another Location

Airport or City:

Trip Planner

Search our weather history database for the weather conditions in past years. The results will help you decide how hot, cold, wet, or windy it might be!

Date:

Astronomy

Jul. 02, 2013 Rise Set
Actual Time 6:12 AM CDT 8:19 PM CDT
Civil Twilight 5:44 AM CDT 8:46 PM CDT
Nautical Twilight 5:10 AM CDT 9:20 PM CDT
Astronomical Twilight 4:34 AM CDT 9:56 PM CDT
Moon 2:04 AM CDT (7/2) 3:42 PM CDT (7/2)
Length of Visible Light 15h 02m
Length of Day
14h 07m
Waning Crescent, 26% of the Moon is Illuminated
Jul 2
Waning Crescent
Jul 8
New
Jul 15
First Quarter
Jul 22
Full
Jul 29
Last Quarter

Hourly Weather History & Observations

Time (CDT) Temp. Heat Index Dew Point Humidity Pressure Visibility Wind Dir Wind Speed Gust Speed Precip Events Conditions
12:54 AM 68.0 °F - 63.0 °F 84% 30.01 in 10.0 mi Calm Calm - N/A   Clear
1:54 AM 66.9 °F - 63.0 °F 87% 30.00 in 10.0 mi Calm Calm - N/A   Clear
2:54 AM 66.0 °F - 62.1 °F 87% 30.01 in 10.0 mi Calm Calm - N/A   Clear
3:54 AM 64.9 °F - 62.1 °F 90% 30.01 in 10.0 mi Calm Calm - N/A   Clear
4:54 AM 64.9 °F - 62.1 °F 90% 30.03 in 8.0 mi Calm Calm - N/A   Clear
5:54 AM 64.0 °F - 61.0 °F 90% 30.05 in 5.0 mi Calm Calm - N/A   Clear
6:54 AM 64.9 °F - 62.1 °F 90% 30.06 in 6.0 mi Calm Calm - N/A   Clear
7:54 AM 73.9 °F - 64.9 °F 73% 30.06 in 10.0 mi Calm Calm - N/A   Clear
8:54 AM 79.0 °F - 64.0 °F 60% 30.07 in 10.0 mi Calm Calm - N/A   Clear
9:54 AM 82.9 °F 84.0 °F 63.0 °F 51% 30.07 in 10.0 mi Variable 3.5 mph - N/A   Clear
10:54 AM 84.9 °F 85.4 °F 62.1 °F 46% 30.07 in 10.0 mi Variable 3.5 mph - N/A   Clear
11:54 AM 88.0 °F 87.6 °F 60.1 °F 39% 30.06 in 10.0 mi Calm Calm - N/A   Clear
12:54 PM 88.0 °F 87.6 °F 60.1 °F 39% 30.05 in 10.0 mi Calm Calm - N/A   Scattered Clouds
1:54 PM 89.1 °F 88.8 °F 60.1 °F 38% 30.04 in 10.0 mi Variable 4.6 mph - N/A   Partly Cloudy
2:54 PM 84.9 °F 85.0 °F 61.0 °F 44% 30.03 in 10.0 mi Calm Calm - N/A   Overcast
3:18 PM 71.6 °F - 64.4 °F 78% 29.99 in 1.8 mi Variable 6.9 mph 18.4 mph 0.08 in Rain , Thunderstorm Heavy Thunderstorms and Rain
3:36 PM 69.8 °F - 64.4 °F 83% 29.98 in 3.0 mi Calm Calm - 0.29 in Rain Light Rain
3:54 PM 75.0 °F - 66.9 °F 76% 30.05 in 10.0 mi Calm Calm - 0.29 in   Mostly Cloudy
4:54 PM 82.9 °F 84.6 °F 64.9 °F 54% 30.02 in 10.0 mi Calm Calm - N/A   Clear
5:54 PM 79.0 °F - 70.0 °F 74% 30.03 in 10.0 mi Calm Calm - N/A   Scattered Clouds
6:08 PM 78.8 °F - 69.8 °F 74% 29.96 in 10.0 mi Calm Calm - N/A Thunderstorm Thunderstorm
6:24 PM 73.4 °F - 66.2 °F 78% 29.97 in 3.0 mi Variable 3.5 mph - 0.03 in Rain Light Rain
6:54 PM 72.0 °F - 68.0 °F 87% 30.05 in 10.0 mi Calm Calm - 0.03 in Rain , Thunderstorm Light Thunderstorms and Rain
7:12 PM 73.4 °F - 68.0 °F 83% 29.97 in 10.0 mi Calm Calm - 0.00 in Rain Light Rain
7:54 PM 73.0 °F - 69.1 °F 87% 30.06 in 10.0 mi Calm Calm - 0.00 in   Clear
8:54 PM 71.1 °F - 68.0 °F 90% 30.06 in 10.0 mi Calm Calm - N/A   Clear
9:54 PM 70.0 °F - 66.9 °F 90% 30.07 in 6.0 mi Calm Calm - N/A   Clear
10:54 PM 69.1 °F - 66.0 °F 90% 30.07 in 4.0 mi Calm Calm - N/A   Clear
11:54 PM 69.1 °F - 66.0 °F 90% 30.08 in 5.0 mi Calm Calm - N/A   Clear